Weather History for RJCK - May, 2013

Change the Weather History Date:

Monday, May 13, 2013

  Actual Average Record
Temperature  
Mean Temperature 40 °F -  
Max Temperature 42 °F 56 °F 71 °F (2001)
Min Temperature 37 °F 45 °F 33 °F (2005)
Degree Days  
Heating Degree Days 26    
Moisture  
Dew Point 37 °F    
Average Humidity 88    
Maximum Humidity 100    
Minimum Humidity 76    
Precipitation  
Precipitation 0.00 in - - ()
Sea Level Pressure  
Sea Level Pressure 30.01 in    
Wind  
Wind Speed 10 mph ()    
Max Wind Speed 17 mph    
Max Gust Speed -    
Visibility 4.7 miles    
Events Rain    
Averages and records for this station are not official NWS values.
T = Trace of Precipitation, MM = Missing Value Source: Averaged Metar Reports

Daily Weather History Graph

Daily Weather History Graph

Search for Another Location

Airport or City:

Trip Planner

Search our weather history database for the weather conditions in past years. The results will help you decide how hot, cold, wet, or windy it might be!

Date:

Astronomy

May. 13, 2013 Rise Set
Actual Time 4:02 AM JST 6:37 PM JST
Civil Twilight 3:30 AM JST 7:09 PM JST
Nautical Twilight 2:49 AM JST 7:50 PM JST
Astronomical Twilight 2:03 AM JST 8:36 PM JST
Moon 6:14 AM JST (5/13) 9:20 PM JST (5/13)
Length of Visible Light 15h 39m
Length of Day
14h 34m
Waxing Crescent, 9% of the Moon is Illuminated
May 13
Waxing Crescent
May 18
First Quarter
May 25
Full
Jun 1
Last Quarter
Jun 9
New

Hourly Weather History & Observations

Time (JST) Temp. Windchill Dew Point Humidity Pressure Visibility Wind Dir Wind Speed Gust Speed Precip Events Conditions
7:00 AM 39.2 °F 33.0 °F 35.6 °F 87% 29.98 in 4.3 mi SSW 9.2 mph - N/A   Mostly Cloudy
8:00 AM 39.2 °F 32.5 °F 35.6 °F 87% 30.01 in 5.0 mi SW 10.4 mph - N/A   Mostly Cloudy
8:32 AM 41.0 °F 34.3 °F 37.4 °F 87% 30.01 in 5.0 mi SSW 11.5 mph - N/A   Mostly Cloudy
8:49 AM 41.0 °F 34.7 °F 37.4 °F 87% 30.01 in 4.3 mi SSW 10.4 mph - N/A   Light Drizzle
9:00 AM 41.0 °F 34.7 °F 37.4 °F 87% 30.01 in 4.3 mi SSW 10.4 mph - N/A   Light Drizzle
9:17 AM 41.0 °F 33.9 °F 37.4 °F 87% 30.01 in 5.0 mi SSW 12.7 mph - N/A   Light Drizzle
9:38 AM 42.8 °F 37.5 °F 39.2 °F 87% 30.01 in 5.0 mi SSW 9.2 mph - N/A   Light Drizzle
10:00 AM 42.8 °F 37.0 °F 37.4 °F 81% 30.01 in 6.2 mi SSW 10.4 mph - N/A   Mostly Cloudy
10:14 AM 41.0 °F 33.9 °F 39.2 °F 93% 30.01 in 6.2 mi SSW 12.7 mph - N/A   Mostly Cloudy
10:21 AM 41.0 °F 33.5 °F 37.4 °F 87% 30.01 in 6.2 mi SSW 13.8 mph - N/A   Mostly Cloudy
10:34 AM 41.0 °F 34.3 °F 39.2 °F 93% 30.01 in 6.2 mi SSW 11.5 mph - N/A   Mostly Cloudy
11:00 AM 42.8 °F 35.4 °F 37.4 °F 81% 30.01 in 6.2 mi SSW 15.0 mph - N/A   Mostly Cloudy
11:23 AM 42.8 °F 35.1 °F 37.4 °F 81% 30.01 in 6.2 mi SSW 16.1 mph - N/A   Mostly Cloudy
11:47 AM 42.8 °F 34.8 °F 35.6 °F 76% 30.01 in 6.2 mi SSW 17.3 mph - N/A   Mostly Cloudy
12:00 PM 42.8 °F 35.4 °F 35.6 °F 76% 30.01 in 6.2 mi SSW 15.0 mph - N/A   Mostly Cloudy
1:00 PM 42.8 °F 36.2 °F 35.6 °F 76% 30.01 in 6.2 mi SSW 12.7 mph - N/A   Mostly Cloudy
2:00 PM 41.0 °F 33.9 °F 35.6 °F 81% 29.98 in 6.2 mi SW 12.7 mph - N/A Rain Light Rain Showers
3:00 PM 41.0 °F 33.9 °F 37.4 °F 87% 30.01 in 6.2 mi SSW 12.7 mph - N/A   Mostly Cloudy
3:45 PM 39.2 °F 33.0 °F 37.4 °F 93% 30.01 in 6.2 mi SSW 9.2 mph - N/A Rain Rain Showers
4:00 PM 39.2 °F 33.0 °F 37.4 °F 93% 30.01 in 6.2 mi SSW 9.2 mph - N/A Rain Light Rain Showers
4:34 PM 41.0 °F 36.4 °F 37.4 °F 87% 30.01 in 6.2 mi SSW 6.9 mph - N/A   Mostly Cloudy
5:00 PM 41.0 °F 36.4 °F 37.4 °F 87% 30.01 in 6.2 mi SSW 6.9 mph - N/A   Mostly Cloudy
6:00 PM 39.2 °F 34.2 °F 37.4 °F 93% 30.01 in - SSE 6.9 mph - N/A   Mostly Cloudy
6:07 PM 39.2 °F 34.2 °F 37.4 °F 93% 30.01 in - SSE 6.9 mph - N/A   Light Drizzle
6:14 PM 39.2 °F 34.2 °F 37.4 °F 93% 30.01 in 1.4 mi SSE 6.9 mph - N/A   Light Drizzle
6:20 PM 39.2 °F 34.2 °F 37.4 °F 93% 30.01 in 0.9 mi South 6.9 mph - N/A   Light Drizzle
6:36 PM 39.2 °F 33.0 °F 37.4 °F 93% 30.01 in 1.0 mi South 9.2 mph - N/A   Light Drizzle
6:45 PM 39.2 °F 33.0 °F 37.4 °F 93% 30.01 in 1.5 mi South 9.2 mph - N/A   Light Drizzle
7:00 PM 39.2 °F 34.2 °F 37.4 °F 93% 30.01 in 1.9 mi SSW 6.9 mph - N/A   Light Drizzle
8:00 PM 37.4 °F 32.1 °F 37.4 °F 100% 30.01 in 1.6 mi South 6.9 mph - N/A   Light Drizzle
8:29 PM 39.2 °F 35.0 °F 35.6 °F 87% 30.04 in 3.1 mi SSW 5.8 mph - N/A Rain Light Rain Showers